Simultaneous Nadir Overpasses (SNOs) Predictions

Prediction of SNOs between AQUA and METOP-A Satellite Orbit:

Table of predicted SNOs for the next 14.0 days since TLE Epoch: 10/7/2016
Index Date (AQUA) Time (AQUA) Lat,Lon (AQUA) SZA (AQUA ) Date (METOP-A) Time (METOP-A) Lat,Lon (METOP-A) SZA (METOP-A ) Distance(km) Time Diff (sec)
1 10/10/2016 05:06:12 73.81, 97.60 80.55 10/10/2016 05:05:22 73.81, 97.65 80.55 1.59 50
2 10/10/2016 05:55:38 -73.85, -94.84 99.41 10/10/2016 05:56:02 -73.88, -94.85 99.38 3.26 24
3 10/13/2016 00:40:26 73.82, 164.03 81.61 10/13/2016 00:39:44 73.79, 164.02 81.58 2.74 42
4 10/13/2016 01:29:52 -73.85, -28.40 98.35 10/13/2016 01:30:24 -73.87, -28.47 98.34 2.71 32
5 10/15/2016 20:14:41 73.84,-129.58 82.67 10/15/2016 20:14:06 73.83,-129.49 82.66 3.07 35
6 10/15/2016 21:04:07 -73.87, 38.00 97.29 10/15/2016 21:04:47 -73.85, 37.90 97.31 3.52 40
7 10/18/2016 15:48:55 73.82, -63.10 83.68 10/18/2016 15:48:29 73.80, -63.13 83.66 2.47 26
8 10/18/2016 16:38:22 -73.90, 104.37 96.24 10/18/2016 16:39:09 -73.88, 104.39 96.25 1.95 47
9 10/21/2016 10:33:30 -73.27,-163.12 95.90 10/21/2016 10:32:22 -73.24,-165.36 95.90 71.64 68
10 10/21/2016 11:23:08 73.82, 3.35 84.68 10/21/2016 11:22:50 73.83, 3.33 84.69 0.72 18
11 10/21/2016 12:12:35 -73.89, 170.83 95.24 10/21/2016 12:13:30 -73.91, 170.87 95.22 2.23 55




NCC Satellite Simultaneous Nadir Overpasses (SNOs) Prediction Service
